Location: Bothwell
(41.7170°N, 112.2589°W)
Time: 01:55:09
(UTC+00:00)

Tiros 1 - Pass Details

Date: 18 May 2026
Orbit: 618 x 649 km, 48.4° (Epoch: 6 June)

Event Time Altitude Azimuth Distance (km) Brightness Sun altitude
Rises 13:25:30 0° 282° (WNW) 2,888 9.9 12.9°
Reaches altitude 10° 13:29:19 10° 250° (WSW) 1,974 9.1 13.6°
Maximum altitude 13:30:53 12° 230° (SW) 1,863 9.0 13.9°
Drops below altitude 10° 13:32:27 10° 209° (SSW) 1,969 9.3 14.2°
Sets 13:36:14 0° 177° (S) 2,869 10.4 14.9°
